{"data":{"norad_id":55402,"epoch":"2026-09-20T11:51:16.790112Z","epoch_age_seconds":97116,"freshness":"FRESH","line1":"1 55402U 23014M   26263.49394433  .00000128  00000+0  18536-4 0  9991","line2":"2 55402  69.9976 293.3489 0003671 269.6765  90.3973 14.98327902201234","mean_motion":14.98327902,"eccentricity":0.0003671,"inclination_deg":69.9976,"raan_deg":293.3489,"arg_perigee_deg":269.6765,"mean_anomaly_deg":90.3973,"bstar":1.8536e-5,"rev_number":20123,"period_min":96.107133697361,"perigee_km":569.51096065195,"apogee_km":574.6137970359,"semimajor_km":6950.1993788439,"source":"CELESTRAK","updated_at":"2026-09-21T09:00:33.215541Z"}}